Temperature
8 6 6 6 7 8 8 7 7 7 8 7 6 6 7 7 7 7 7 7 7 7 8 8 8 7 7 7 7 7 7 7 7 7 7 7 7 7 7 7 7 7 7 7
6 6 7 7 7 7 7 7 7 7 8 7 6 6 6 6 6 7 7 7 7 7 7 7 7 7 7 7 7 7 6 6 6 6 6 6 6 6 6 6 7 7 7 7
7 7 8 8 7 7 7 7 7 7 7 6 6 6 6 6 7 7 7 7 7 7 7 7 7 7 7 7 7 6 6 6 6 6 6 6 6 6 6 6 6 6 6 6
6 7 8 7 7 7 7 7 7 7 6 5 6 5 6 6 6 6 6 6 7 7 7 7 7 6 6 7 6 6 6 6 6 5 5 5 5 5 5 6 6 6 6 5
6 7 7 7 7 7 6 7 7 6 5 5 5 5 5 5 5 5 5 6 7 7 7 6 6 6 6 6 6 6 6 6 5 5 5 5 5 5 5 5 5 5 5 5
6 7 7 7 7 7 6 6 6 4 4 5 5 5 5 5 5 5 5 6 6 6 6 6 6 6 6 6 6 5 5 5 5 5 5 5 5 5 5 5 5 5 5 5
5 6 6 6 6 6 6 5 5 4 4 4 5 5 5 6 5 5 5 6 6 6 6 6 6 6 5 5 5 5 5 5 5 4 4 4 4 4 4 4 4 4 4 5
4 5 5 6 6 5 5 5 5 5 4 4 4 4 5 6 5 6 6 6 6 6 5 5 5 5 5 5 5 5 5 4 4 4 4 4 4 4 4 4 4 4 4 4
4 5 5 6 6 6 5 4 5 4 3 4 4 4 5 5 5 5 5 5 5 5 5 5 5 5 4 4 4 4 4 4 4 4 4 4 4 4 4 4 4 4 4 4
4 4 5 5 5 5 5 4 3 3 4 4 4 4 4 5 4 4 4 4 5 5 5 5 4 4 4 4 4 4 4 4 3 3 3 3 3 4 3 3 4 4 3 3
4 3 4 4 4 4 4 4 4 3 3 4 4 5 5 4 4 4 4 4 4 4 4 4 4 4 3 3 3 3 3 3 3 3 3 3 3 3 3 3 3 3 3 3
3 2 3 3 4 4 4 4 3 3 3 2 3 4 5 4 4 4 4 4 4 4 4 4 3 3 3 3 3 3 3 3 3 3 3 3 3 3 3 3 3 3 3 3
3 2 3 4 4 3 3 3 3 2 2 2 2 4 4 4 4 4 4 4 4 4 3 3 3 3 3 3 3 3 3 3 3 3 3 3 3 3 3 3 3 2 2 2
3 1 2 4 4 3 2 2 2 2 2 2 2 3 4 4 3 3 3 3 3 3 3 3 2 2 2 2 2 3 3 3 3 2 2 2 2 2 2 2 2 2 2 2
2 1 1 2 2 2 2 2 2 2 2 2 3 3 4 3 3 3 3 3 3 3 2 2 2 2 2 2 2 2 2 2 2 2 2 2 2 2 2 2 2 2 2 2
1 1 1 1 2 2 2 2 2 2 2 2 2 3 3 3 3 3 2 2 2 2 2 2 2 1 1 1 1 2 2 2 2 2 2 2 2 1 1 2 1 1 1 1
0 1 1 1 1 2 2 2 2 2 2 2 3 3 2 2 2 2 2 2 2 2 2 1 1 1 1 1 1 1 2 2 2 1 1 1 1 1 1 1 1 1 1 1
0 0 0 0 1 2 3 3 2 2 2 2 2 2 2 2 2 3 3 2 2 2 1 1 1 1 1 1 1 1 1 1 1 1 1 1 1 1 1 1 1 1 1 1
0 0 -0 -0 0 1 3 3 2 2 2 2 1 1 2 2 2 2 2 2 2 2 1 1 0 0 0 1 1 1 1 1 1 1 1 1 1 0 0 0 0 0 -0 0
-0 -1 -0 -0 1 2 4 3 3 2 2 2 1 1 1 1 0 1 2 2 2 2 1 1 0 0 0 0 0 0 0 0 0 0 0 0 0 -0 -0 -0 -0 -0 -1 -1
-1 -1 -1 -0 0 1 2 2 2 3 3 3 2 2 1 1 1 2 2 2 1 1 1 1 0 0 0 0 0 0 0 -0 -0 -0 -0 -0 -0 -0 -1 -1 -1 -1 -1 -1
-1 -1 -1 -1 -0 1 2 1 2 2 3 3 3 2 2 2 2 2 2 1 1 1 1 0 0 -0 -0 -0 -0 -0 -0 -0 -1 -0 -0 -0 -1 -1 -1 -1 -1 -1 -2 -2
-1 -0 -0 -0 2 2 2 2 3 3 3 3 3 2 2 2 2 1 1 1 1 1 0 -0 -0 -0 -0 -1 -1 -1 -1 -1 -1 -1 -1 -1 -1 -1 -1 -1 -2 -2 -2 -2
-1 -1 -1 -1 -0 1 2 3 3 3 3 3 3 2 2 2 1 1 1 1 0 0 -0 -0 -1 -1 -1 -1 -1 -1 -1 -1 -1 -1 -1 -1 -1 -2 -2 -2 -2 -2 -2 -2
-1 -2 -1 -1 -0 1 2 3 3 3 3 2 2 2 2 2 1 1 1 0 -0 -0 -0 -1 -1 -1 -1 -1 -1 -1 -1 -1 -1 -1 -1 -2 -2 -2 -2 -2 -3 -3 -3 -3
-2 -1 -1 1 1 1 2 3 3 2 2 2 2 2 1 1 1 1 0 -0 -0 -1 -1 -1 -1 -1 -1 -1 -2 -2 -2 -2 -2 -2 -2 -2 -2 -2 -2 -3 -3 -3 -3 -3
Wind_Speed
1 2 4 6 6 5 4 4 6 6 4 4 8 11 11 7 5 6 6 5 6 6 6 3 3 3 2 1 1 2 2 2 1 1 1 1 1 1 1 2 2 2 2 2
2 4 7 4 4 4 5 5 5 5 3 4 7 11 8 6 6 7 7 7 7 5 4 3 2 2 3 3 3 2 2 2 2 2 2 1 1 2 2 2 2 2 2 2
5 4 4 3 3 4 5 6 6 6 6 3 4 7 5 4 4 4 4 5 5 6 6 5 3 4 3 3 3 2 2 1 2 2 1 0 0 1 1 1 1 2 2 2
4 4 3 2 3 3 5 5 5 4 2 4 0 4 6 4 4 4 4 4 5 5 5 5 4 4 4 4 3 2 2 2 2 2 2 2 2 2 3 2 2 2 2 3
3 2 2 4 4 3 5 3 3 2 2 3 2 3 7 2 4 6 5 5 5 5 5 6 6 5 4 3 3 2 2 2 2 2 3 3 2 3 2 2 2 2 2 3
4 2 2 3 2 2 2 3 3 3 2 3 4 4 6 3 5 5 5 5 5 4 4 4 4 3 2 2 2 2 2 2 2 2 2 3 3 3 3 3 3 3 2 2
4 3 1 1 1 2 2 3 3 4 2 5 2 3 7 6 5 5 5 4 4 3 2 2 2 2 2 2 2 2 2 2 2 2 2 3 4 4 4 4 4 3 3 3
1 4 3 2 3 2 2 4 4 3 4 5 2 5 6 4 4 4 3 3 2 2 2 2 3 2 2 2 2 2 3 3 3 3 3 3 3 3 3 4 4 4 4 4
3 5 2 2 2 4 3 3 3 3 1 3 5 6 6 2 3 2 1 2 2 3 2 2 2 2 2 3 3 3 3 3 3 3 3 3 4 3 3 4 3 3 4 3
4 4 3 1 1 0 3 4 3 2 2 4 5 5 4 5 5 3 3 3 3 3 3 3 2 2 2 3 3 3 2 3 3 3 3 3 3 3 3 3 3 4 4 4
2 2 3 1 3 5 3 2 2 2 3 3 4 6 4 5 5 4 4 4 4 3 3 3 3 3 2 2 2 2 2 3 3 3 3 3 3 3 3 3 3 4 3 3
2 2 3 5 4 2 4 5 5 3 4 3 3 7 5 4 4 3 4 4 4 3 3 2 2 3 3 3 3 3 3 3 3 3 2 3 2 2 3 3 3 3 4 4
2 3 2 4 2 1 1 3 4 3 2 3 4 8 3 4 4 3 3 4 3 4 3 3 2 3 3 3 3 3 3 3 3 2 2 2 2 2 3 3 3 3 3 3
2 3 5 7 5 2 4 5 4 4 4 5 9 11 10 8 7 5 5 4 4 3 3 3 4 4 3 4 3 3 3 2 2 2 2 2 3 3 3 3 3 3 3 3
3 3 5 7 7 5 7 8 7 9 9 8 9 10 13 9 7 6 4 4 4 4 4 4 4 4 4 4 4 4 3 3 2 2 2 3 3 2 2 2 2 3 3 3
2 2 2 4 5 5 8 10 10 10 9 10 11 13 10 6 4 4 4 4 4 5 5 5 5 5 4 4 4 4 4 3 2 2 2 2 2 2 2 2 2 2 2 2
2 2 1 3 4 3 7 9 10 7 8 8 10 11 4 5 5 5 5 4 4 5 6 6 6 5 5 5 4 4 4 3 2 2 2 2 2 1 2 2 1 2 2 1
4 3 2 2 2 5 7 3 7 7 7 8 8 6 5 6 6 5 4 3 4 5 6 6 6 6 5 5 4 3 3 2 2 2 2 2 2 2 1 1 1 1 1 0
5 5 2 2 3 7 8 4 4 5 7 6 8 6 4 3 3 4 3 3 4 5 5 5 5 5 5 4 4 3 2 2 2 2 3 3 2 2 1 2 2 1 1 1
3 4 3 3 3 6 7 3 2 3 5 5 6 6 4 0 3 6 5 4 4 4 4 3 4 4 4 4 3 2 2 2 3 4 3 3 2 2 2 2 1 1 0 0
3 3 5 6 6 8 6 2 3 3 6 3 5 5 4 5 6 5 4 4 3 3 4 3 3 3 3 3 2 2 2 3 4 4 3 2 2 2 2 1 0 0 0 0
8 6 6 5 6 9 4 5 6 7 3 3 4 4 5 5 4 3 3 3 3 3 4 3 3 4 4 3 2 3 4 4 3 2 2 2 2 2 1 0 0 0 1 1
8 9 6 9 9 5 6 7 6 4 4 5 4 5 4 4 4 4 3 4 4 3 3 3 3 4 4 3 2 3 5 4 3 2 2 2 1 1 0 1 0 0 1 0
5 4 4 6 9 8 7 6 6 6 6 6 5 5 4 5 4 4 4 4 4 4 3 3 2 3 4 4 3 4 4 2 2 2 1 1 0 0 0 0 0 0 0 0
6 5 5 7 8 6 7 8 8 6 5 5 4 4 5 4 4 4 4 4 4 4 3 2 3 4 5 4 4 4 3 2 1 1 1 1 0 1 0 0 0 0 1 1
6 7 7 9 8 6 7 6 5 5 6 6 4 4 4 4 5 4 4 4 4 4 3 3 3 4 4 4 4 4 3 1 0 1 1 0 0 0 1 1 1 2 1 1
Wind_Direction
99 107 205 216 208 212 218 229 256 256 260 252 249 264 271 263 241 228 229 230 236 241 250 240 227 219 216 232 235 228 224 233 211 219 190 180 246 258 266 257 252 254 266 268
64 231 232 225 219 238 245 255 263 283 278 259 271 275 270 256 234 218 221 227 234 244 263 256 246 230 226 227 230 228 220 228 211 207 204 201 216 242 250 261 267 259 251 246
205 235 234 208 231 245 250 229 240 267 313 308 312 302 272 268 238 233 226 227 229 227 233 243 238 232 234 240 235 236 228 246 234 215 195 126 33 340 311 282 268 262 247 237
229 256 246 231 232 215 256 237 238 259 307 284 246 287 279 269 272 265 257 252 242 242 235 234 233 234 233 240 238 227 227 234 238 205 187 184 209 243 256 249 250 273 260 244
253 233 208 227 237 214 236 269 262 253 216 290 264 228 283 280 271 268 260 259 258 249 236 235 232 230 236 238 229 226 228 241 237 211 199 197 222 246 259 260 256 265 266 257
261 265 219 223 252 224 260 2 27 42 75 275 231 197 276 245 236 262 258 259 263 260 249 248 245 234 238 237 223 217 223 248 238 215 209 214 223 239 251 253 249 258 265 268
305 281 275 142 18 0 68 83 22 353 332 255 232 203 252 248 238 231 241 252 261 255 246 256 259 251 256 254 238 229 223 250 251 235 238 239 233 228 233 243 241 245 256 269
289 280 245 195 186 202 201 150 164 215 241 281 300 233 251 262 271 256 246 247 265 266 264 266 261 248 251 260 256 239 231 245 241 235 247 248 238 239 242 239 241 242 245 251
205 260 275 214 190 160 163 193 182 162 257 277 268 273 295 275 315 311 306 321 284 270 275 280 284 276 261 258 259 248 236 244 248 249 256 257 241 242 253 253 249 250 248 255
185 257 268 274 101 231 165 152 110 141 221 268 280 268 260 273 282 302 314 304 293 281 286 290 295 288 283 272 271 262 235 235 244 245 246 261 255 249 249 249 251 251 254 255
174 208 289 327 199 199 167 163 163 171 191 207 270 272 240 245 255 267 277 288 289 281 278 288 302 304 296 298 285 273 259 258 253 249 255 259 269 270 259 249 249 248 249 247
169 162 260 256 253 228 189 184 161 174 237 211 233 269 275 259 269 265 283 303 310 305 290 290 303 311 309 303 296 289 278 268 263 255 253 255 264 268 265 253 250 252 247 247
146 135 335 333 320 342 230 204 186 172 179 205 222 263 297 330 325 310 302 304 311 314 311 318 315 304 298 295 288 286 284 280 279 269 262 268 269 268 266 258 252 249 244 247
124 171 198 219 236 219 253 246 214 192 214 235 235 257 285 298 304 307 302 298 300 301 301 308 306 301 295 295 294 302 295 287 288 286 278 275 269 259 259 258 246 247 243 240
130 218 231 251 265 253 250 249 223 218 217 225 248 255 271 279 278 280 282 294 305 305 306 304 304 303 299 306 310 308 302 298 292 296 291 277 276 276 278 281 258 248 247 244
153 214 246 278 267 259 263 252 234 235 233 238 257 270 271 280 288 290 286 288 295 296 298 300 299 302 297 295 296 297 296 290 287 281 285 296 294 288 286 287 287 266 253 240
189 167 218 267 301 318 267 233 212 219 219 211 236 251 272 297 284 277 270 274 282 295 303 303 299 295 291 284 281 282 285 288 276 273 288 298 287 283 291 299 309 288 264 240
179 166 194 268 1 248 245 226 201 214 241 225 237 251 249 259 268 272 253 237 276 289 298 300 303 302 298 296 294 289 292 279 266 280 288 285 284 281 290 313 305 304 316 260
191 175 181 197 250 273 285 247 186 204 261 234 227 249 271 291 317 291 271 264 262 271 283 286 291 295 297 301 304 298 301 293 285 278 278 280 276 281 297 289 282 301 340 344
146 158 171 189 219 244 251 235 177 127 273 237 211 233 258 346 301 281 287 293 287 292 298 297 304 310 307 305 308 302 299 297 284 275 270 271 272 265 269 275 271 307 33 301
164 180 200 210 233 261 254 227 124 168 253 250 211 222 222 219 234 261 284 292 283 289 297 303 314 312 304 307 312 305 300 287 282 282 279 280 280 271 266 269 285 51 73 49
181 183 198 186 216 251 211 156 186 227 259 235 226 223 225 243 259 271 280 284 289 296 301 304 312 310 308 308 306 304 293 293 299 298 298 290 290 283 278 159 1 34 78 75
202 196 193 199 220 243 191 206 230 230 236 238 229 238 221 239 257 271 279 283 286 284 293 299 297 304 309 310 301 284 289 302 311 317 308 295 294 299 262 145 124 59 70 98
245 203 200 245 258 252 245 249 254 240 236 241 236 234 225 236 245 263 275 286 290 287 291 296 304 302 303 308 306 287 291 310 316 305 302 304 250 311 20 58 144 146 184 177
226 191 211 249 265 277 261 239 240 247 250 255 254 243 228 225 247 253 265 275 281 290 292 284 273 280 288 298 301 306 309 316 316 317 325 337 321 190 137 357 284 215 221 224
207 197 204 238 235 223 253 244 225 235 247 240 238 250 247 230 237 248 257 266 275 280 283 288 285 285 288 293 298 309 312 300 303 328 322 305 331 101 118 83 13 351 336 357
Height
1510 1514 1515 1514 1513 1513 1513 1515 1515 1511 1507 1508 1506 1503 1498 1495 1495 1494 1494 1493 1493 1492 1492 1493 1492 1492 1491 1490 1489 1488 1487 1487 1486 1486 1485 1485 1485 1486 1486 1486 1485 1485 1485 1485
1513 1514 1510 1510 1511 1512 1512 1513 1513 1509 1506 1506 1504 1500 1495 1493 1491 1490 1490 1490 1490 1489 1490 1489 1489 1488 1488 1487 1486 1485 1484 1484 1484 1483 1483 1483 1483 1483 1483 1483 1482 1482 1482 1482
1510 1510 1507 1508 1509 1510 1510 1510 1510 1509 1506 1504 1505 1501 1495 1490 1488 1487 1487 1486 1486 1486 1486 1486 1485 1485 1484 1483 1482 1482 1481 1481 1481 1481 1480 1480 1480 1479 1480 1479 1479 1479 1479 1478
1510 1507 1507 1507 1507 1508 1509 1505 1505 1506 1511 1511 1509 1509 1495 1490 1487 1485 1484 1483 1483 1483 1483 1483 1482 1481 1481 1480 1480 1479 1479 1478 1478 1478 1478 1477 1476 1476 1476 1476 1476 1476 1475 1475
1508 1506 1506 1506 1506 1506 1506 1503 1504 1505 1509 1512 1509 1511 1497 1490 1488 1484 1481 1481 1480 1480 1480 1479 1479 1478 1478 1477 1477 1476 1476 1476 1475 1475 1474 1474 1473 1473 1473 1473 1472 1472 1472 1472
1508 1505 1505 1505 1504 1504 1505 1505 1506 1510 1513 1514 1507 1509 1498 1491 1484 1481 1478 1478 1477 1477 1477 1476 1476 1476 1475 1474 1474 1473 1473 1472 1472 1472 1471 1470 1470 1470 1469 1469 1469 1468 1468 1468
1509 1506 1504 1504 1505 1505 1506 1511 1517 1518 1519 1512 1504 1503 1494 1482 1479 1477 1476 1475 1475 1475 1475 1474 1473 1472 1472 1471 1471 1470 1470 1469 1468 1468 1468 1467 1467 1466 1466 1465 1465 1465 1464 1464
1514 1510 1504 1503 1504 1506 1507 1509 1517 1519 1519 1511 1504 1501 1487 1479 1477 1475 1475 1474 1474 1473 1473 1472 1471 1470 1469 1469 1468 1468 1467 1466 1465 1465 1465 1464 1464 1463 1462 1462 1462 1461 1460 1460
1513 1509 1503 1502 1502 1504 1506 1509 1509 1516 1517 1515 1506 1497 1485 1478 1476 1474 1473 1473 1472 1471 1471 1470 1469 1468 1467 1466 1466 1465 1464 1463 1462 1462 1461 1461 1460 1459 1458 1458 1458 1457 1457 1457
1508 1510 1505 1503 1502 1503 1505 1507 1513 1515 1514 1511 1502 1497 1489 1479 1476 1474 1472 1471 1470 1470 1469 1468 1467 1466 1465 1464 1464 1462 1461 1460 1460 1459 1458 1457 1456 1455 1454 1454 1453 1453 1454 1453
1507 1511 1507 1505 1503 1504 1506 1507 1508 1513 1513 1512 1507 1494 1478 1476 1474 1473 1471 1470 1469 1468 1467 1466 1466 1465 1464 1462 1461 1459 1458 1457 1456 1455 1454 1453 1452 1451 1451 1450 1450 1450 1450 1450
1506 1510 1511 1506 1502 1501 1502 1504 1508 1511 1512 1512 1510 1495 1475 1474 1472 1471 1470 1470 1468 1468 1467 1466 1464 1463 1461 1459 1458 1456 1455 1454 1453 1452 1450 1449 1448 1448 1447 1447 1446 1446 1446 1446
1505 1510 1511 1505 1506 1504 1503 1503 1504 1506 1510 1512 1508 1492 1474 1472 1471 1470 1470 1468 1468 1467 1465 1464 1462 1460 1458 1456 1455 1453 1452 1451 1449 1448 1447 1445 1444 1444 1443 1443 1442 1442 1442 1442
1502 1508 1508 1504 1499 1501 1502 1501 1501 1504 1507 1506 1498 1485 1475 1473 1471 1470 1469 1467 1466 1465 1463 1461 1459 1457 1456 1454 1452 1450 1448 1447 1446 1445 1443 1442 1441 1440 1439 1439 1439 1439 1439 1438
1502 1506 1505 1501 1498 1499 1498 1496 1497 1497 1496 1497 1486 1482 1473 1471 1471 1469 1467 1466 1464 1462 1461 1459 1457 1455 1453 1451 1449 1447 1446 1445 1443 1442 1440 1439 1438 1437 1436 1435 1435 1435 1435 1435
1502 1504 1503 1500 1496 1496 1494 1490 1491 1490 1489 1488 1484 1479 1471 1470 1469 1467 1465 1464 1462 1460 1458 1457 1454 1452 1450 1448 1446 1445 1443 1442 1441 1439 1438 1437 1435 1434 1433 1432 1432 1432 1432 1432
1502 1503 1504 1501 1498 1495 1491 1483 1483 1483 1480 1481 1479 1473 1470 1469 1467 1465 1463 1462 1460 1459 1457 1454 1452 1450 1448 1446 1444 1442 1441 1440 1438 1437 1435 1434 1432 1431 1430 1429 1429 1428 1428 1428
1500 1502 1504 1503 1501 1497 1479 1474 1474 1475 1473 1473 1471 1468 1467 1465 1464 1463 1461 1460 1458 1456 1454 1451 1449 1447 1445 1443 1441 1440 1438 1437 1436 1434 1432 1431 1430 1429 1427 1427 1426 1426 1425 1425
1496 1499 1503 1504 1501 1490 1476 1471 1472 1473 1471 1467 1467 1465 1464 1463 1462 1460 1459 1458 1456 1454 1452 1449 1447 1444 1442 1440 1438 1437 1435 1434 1433 1431 1430 1428 1427 1426 1425 1424 1423 1423 1423 1422
1495 1497 1501 1502 1497 1488 1470 1467 1466 1470 1470 1462 1462 1462 1462 1462 1463 1458 1456 1455 1453 1451 1449 1447 1444 1442 1439 1438 1436 1434 1433 1431 1430 1428 1427 1426 1425 1424 1423 1422 1421 1421 1420 1420
1495 1497 1498 1498 1494 1480 1467 1465 1466 1472 1465 1459 1458 1458 1458 1458 1458 1455 1453 1452 1450 1448 1447 1444 1442 1439 1437 1435 1434 1432 1430 1428 1427 1426 1425 1423 1422 1421 1421 1420 1419 1419 1418 1418
1488 1492 1494 1494 1491 1478 1462 1463 1465 1461 1456 1455 1455 1455 1455 1454 1453 1451 1450 1449 1447 1446 1444 1441 1439 1436 1435 1433 1431 1429 1427 1426 1425 1423 1422 1421 1420 1419 1418 1418 1417 1417 1416 1416
1479 1477 1476 1476 1469 1459 1457 1456 1455 1455 1454 1453 1452 1452 1452 1451 1449 1448 1447 1446 1445 1443 1441 1439 1437 1434 1432 1430 1429 1426 1425 1423 1422 1420 1419 1418 1418 1417 1416 1416 1415 1415 1414 1414
1471 1468 1470 1468 1458 1454 1453 1453 1452 1452 1451 1450 1450 1449 1449 1447 1446 1446 1445 1443 1442 1440 1439 1437 1434 1431 1429 1428 1426 1424 1422 1421 1419 1418 1416 1416 1415 1414 1414 1414 1413 1413 1413 1413
1463 1464 1464 1461 1454 1451 1448 1448 1448 1448 1448 1447 1446 1446 1445 1445 1443 1443 1442 1440 1439 1438 1436 1434 1432 1429 1427 1425 1423 1421 1420 1418 1417 1415 1414 1413 1412 1412 1412 1411 1412 1412 1412 1412
1456 1457 1457 1452 1446 1447 1443 1443 1444 1444 1444 1443 1443 1442 1442 1442 1440 1439 1438 1437 1436 1435 1433 1431 1429 1427 1425 1423 1421 1419 1418 1416 1415 1413 1412 1410 1410 1409 1410 1410 1410 1411 1411 1411